Flag Weather past 2 weeks in Cranbrook, British Columbia, Canada

Now
34 °F

Light rain. Overcast.


Feels Like: 30 °F
Forecast: 37 / 42 °F
Wind: 5 mph from Southwest

Location: Cranbrook

Current Time: Nov 27, 2014 at 6:30:17 AM

Latest Report: Nov 27, 2014 at 5:00 AM


Visibility: 15 mi

Pressure: 29.86 "Hg

Humidity: 93%

Dew point: 32 °F

Location of CranbrookLocation

Historic Weather in Cranbrook — Graph

°F

Cranbrook temperature yesterday

Maximum temperature yesterday: 32 °F (at 2:00 PM)
Minimum temperature yesterday: 28 °F (at 12:00 AM)
Average temperature yesterday: 30 °F

Past Weeks' High & Low Weather Summary

 TemperatureHumidityPressure
High41 °F (Nov 22, 2:00 PM)100% (Nov 24, 2:00 PM)30.82 "Hg (Nov 24, 2:00 PM)
Low-6 °F (Nov 13, 8:00 AM)48% (Nov 22, 4:00 PM)29.32 "Hg (Nov 22, 5:00 AM)
Average18 °F81%30.28 "Hg
* Reported Nov 12 5:00 AM — Nov 27 5:00 AM, Cranbrook, Weather by CustomWeather, © 2014

Note: Actual official high and low records may vary slightly from our data, if they occured in-between our weather recording intervals... More about our weather records

Advertising

Cranbrook weather history for previous 24 hours

 ConditionsComfort  
Time TempWeatherWind HumidityBarometerVisibility
5:00 AM
Nov 27
34 °FLight rain. Overcast.5 mph93%29.86 "Hg15 mi
4:00 AM34 °FLight rain. Mostly cloudy.8 mph93%29.88 "Hg12 mi
3:00 AM32 °FLight rain. Mostly cloudy.3 mph93%29.91 "Hg12 mi
2:00 AM32 °FLight rain. Mostly cloudy.3 mph93%29.95 "Hg12 mi
1:00 AM32 °FLight mixture of precip. Overcast.5 mph93%29.99 "Hg12 mi
12:00 AM32 °FLight mixture of precip. Overcast.6 mph93%30.01 "Hg12 mi
11:47 PM
Nov 26
32 °FLight mixture of precip. Overcast.5 mph87%30.02 "Hg12 mi
11:00 PM32 °FLight snow. Overcast.6 mph87%30.03 "Hg7 mi
10:00 PM32 °FLight snow. Overcast.6 mph87%30.03 "Hg7 mi
9:00 PM30 °FLight snow. Overcast.7 mph93%30.07 "Hg8 mi
8:00 PM30 °FOvercast.2 mph93%30.09 "Hg7 mi
7:00 PM30 °FLight snow. Ice fog.5 mph93%30.12 "Hg5 mi
6:00 PM30 °FLight snow. Ice fog.3 mph93%30.15 "Hg5 mi
5:52 PM30 °FLight snow. Ice fog.3 mph93%30.15 "Hg5 mi
5:00 PM30 °FLight snow. Ice fog.5 mph100%30.16 "Hg1 mi
4:00 PM32 °FLight snow. Ice fog.2 mph93%30.17 "Hg1 mi
3:00 PM32 °FLight snow. Low clouds.No wind93%30.18 "Hg1 mi
2:00 PM32 °FLight snow. Mostly cloudy.2 mph93%30.19 "Hg5 mi
1:00 PM30 °FLight snow. Mostly cloudy.No wind93%30.20 "Hg2 mi
12:00 PM30 °FLight snow. Low clouds.3 mph93%30.22 "Hg1 mi
11:00 AM30 °FLight snow. Overcast.No wind93%30.24 "Hg2 mi
10:00 AM30 °FLight snow. Overcast.No wind93%30.24 "Hg1 mi
9:00 AM28 °FLight snow. Overcast.No wind100%30.24 "Hg1 mi
8:00 AM28 °FLight snow. Overcast.2 mph100%30.23 "Hg1 mi
7:00 AM28 °FLight snow. Overcast.No wind100%30.23 "Hg2 mi
6:00 AM28 °FLight snow. Overcast.No wind100%30.24 "Hg2 mi
Weather by CustomWeather, © 2014

See weather overviewHow to use our weather pages